Location: Branche des Alpilles
(43.6087°N, 4.6976°E)
Time: 18:43:43
(UTC+00:00)

FENGYUN 1C DEB - Visible Passes

Search period start: 22 June 2021 00:00
Search period end: 02 July 2021 00:00
Orbit: 779 x 881 km, 99.7° (Epoch: 21 June)

Date Brightness Start Highest point End Pass type
(mag) Time Alt. Az. Time Alt. Az. Time Alt. Az.
22 Jun ? 01:29:47 28° S 01:32:42 78° WSW 01:37:55 10° NNW visible
22 Jun ? 23:34:10 10° ENE 23:35:40 11° NE 23:37:10 10° NE visible
23 Jun ? 01:11:50 25° SSE 01:14:59 74° ENE 01:20:10 10° NNW visible
23 Jun ? 02:53:24 11° WSW 02:55:40 15° W 02:58:30 10° WNW visible
24 Jun ? 00:53:52 20° SE 00:57:18 51° ENE 01:02:19 10° N visible
24 Jun ? 02:35:27 16° SW 02:37:45 21° W 02:41:41 10° NW visible
25 Jun ? 00:35:54 15° SE 00:39:41 36° ENE 00:44:22 10° N visible
25 Jun ? 02:17:28 21° SW 02:19:52 30° W 02:24:27 10° NW visible
26 Jun ? 00:17:56 10° ESE 00:22:06 26° ENE 00:26:18 10° N visible
26 Jun ? 01:59:30 26° SSW 02:02:02 44° W 02:07:00 10° NNW visible
27 Jun ? 00:01:03 10° ESE 00:04:33 19° ENE 00:08:03 10° NNE visible
27 Jun ? 01:41:32 28° S 01:44:16 64° WSW 01:49:25 10° NNW visible
27 Jun ? 23:44:42 10° E 23:47:05 13° NE 23:49:27 10° NNE visible
28 Jun ? 01:23:35 27° SSE 01:26:31 88° ENE 01:31:42 10° NNW visible
28 Jun ? 03:05:38 10° WSW 03:07:21 11° W 03:09:04 10° WNW visible
29 Jun ? 01:05:37 23° SE 01:08:49 62° ENE 01:13:54 10° N visible
29 Jun ? 02:47:12 14° WSW 02:49:23 17° W 02:52:47 10° NW visible
30 Jun ? 00:47:39 18° SE 00:51:09 43° ENE 00:56:00 10° N visible
30 Jun ? 02:29:13 19° SW 02:31:29 25° W 02:35:43 10° NW visible
01 Jul ? 00:29:41 13° ESE 00:33:33 30° ENE 00:38:00 10° N visible
01 Jul ? 02:11:16 24° SSW 02:13:37 36° W 02:18:22 10° NNW visible
